Home   Weather   London   Past weeks

Flag for United Kingdom Past Weather in London, England, United Kingdom — Yesterday and Last 2 Weeks

Now
36 °F

Fog.


Feels Like: 36 °F
Forecast: 31 / 42 °F
Wind: 1 mph from Southeast

Location: Northolt

Current Time: Jan 17, 2017 at 11:16:59 am

Latest Report: Jan 17, 2017 at 9:50 am


Visibility: 4 mi

Pressure: 30.60 "Hg

Humidity: 100%

Dew Point: 36 °F

Location of LondonLocation

Past Weather in London — Graph

°F

London Temperature Yesterday

Maximum temperature yesterday: 46 °F (at 12:50 am)
Minimum temperature yesterday: 37 °F (at 11:50 pm)
Average temperature yesterday: 41 °F

High & Low Weather Summary for the Past Weeks

 TemperatureHumidityPressure
High52 °F (Jan 7, 12:50 pm)100% (Jan 2, 9:50 pm)30.63 "Hg (Jan 2, 9:50 pm)
Low23 °F (Jan 6, 3:50 am)46% (Jan 11, 2:50 pm)29.33 "Hg (Jan 12, 5:50 pm)
Average40 °F87%30.20 "Hg
* Reported Jan 2 9:50 am — Jan 17 9:50 am, London, Weather by CustomWeather, © 2017

Note: Actual official high and low records may vary slightly from our data, if they occured in-between our weather recording intervals... More about our weather records

Advertising

London Weather History for the Previous 24 Hours

Scroll right to see more
 ConditionsComfort  
Time TempWeatherWind HumidityBarometerVisibility
9:50 am
Tue, Jan 17
36 °FFog.1 mph100%30.60 "Hg4 mi
8:50 am30 °FIce fog.1 mph100%30.60 "Hg4 mi
8:41 am30 °FIce fog.1 mph93%30.57 "Hg3 mi
8:11 am32 °FIce fog.1 mph100%30.57 "Hg3 mi
7:50 am32 °FIce fog.No wind100%30.57 "Hg4 mi
7:32 am30 °FIce fog.2 mph93%30.57 "Hg4 mi
6:50 am32 °FIce fog.2 mph100%30.54 "Hg4 mi
5:50 am32 °FOvercast.1 mph100%30.54 "Hg6 mi
4:50 am32 °FPassing clouds.1 mph100%30.51 "Hg6 mi
3:50 am32 °FPassing clouds.2 mph100%30.51 "Hg6 mi
2:50 am34 °FPassing clouds.2 mph100%30.51 "Hg1 mi
1:50 am36 °FPassing clouds.1 mph93%30.51 "Hg1 mi
12:50 am37 °FOvercast.1 mph100%30.48 "Hg6 mi
11:50 pm
Mon, Jan 16
37 °FOvercast.No wind93%30.48 "HgN/A
10:50 pm39 °FMostly cloudy.1 mph93%30.45 "HgN/A
9:50 pm41 °FOvercast.1 mph87%30.45 "HgN/A
8:50 pm41 °FOvercast.2 mph87%30.45 "HgN/A
7:50 pm41 °FOvercast.2 mph87%30.42 "HgN/A
6:50 pm41 °FPassing clouds.5 mph87%30.39 "HgN/A
5:50 pm41 °FPassing clouds.3 mph87%30.39 "HgN/A
5:22 pm41 °FPartly cloudy.3 mph87%30.36 "HgN/A
4:50 pm41 °FPassing clouds.3 mph87%30.36 "HgN/A
3:50 pm41 °FBroken clouds.3 mph87%30.36 "HgN/A
2:50 pm41 °FMostly cloudy.6 mph87%30.36 "HgN/A
2:22 pm41 °FCloudy.5 mph87%30.33 "HgN/A
1:50 pm41 °FPartly sunny.6 mph87%30.33 "HgN/A
12:50 pm41 °FBroken clouds.5 mph93%30.33 "HgN/A
11:50 am41 °FRain. Mostly cloudy.5 mph93%30.33 "Hg3 mi
Weather by CustomWeather, © 2017

See weather overviewHow to use our weather pages